Tracking 23752 objects as of 23-Oct-2021
HD Live streaming from Space Station
objects crossing your sky now

AL FARABI 2

Track AL FARABI 2 now!
10-day predictions


NORAD ID: 43805
Int'l Code: 2018-099AZ
Perigee: 575.4 km
Apogee: 595.8 km
Inclination: 97.7 °
Period: 96.2 minutes
Semi major axis: 6956 km
RCS: Unknown
Launch date: December 3, 2018
Source: (TBD)
Launch site: AIR FORCE WESTERN TEST RANGE (AFWTR)
aabbcc
Your satellite tracking list
Your tracking list is empty




NASA's NSSDC Master Catalog

Two Line Element Set (TLE):
1 43805U 18099AZ  21295.94628403  .00001437  00000-0  13205-3 0  9991
2 43805  97.6530   3.9969 0014657 349.8672  10.2253 14.96270561157579
Source of the keplerian elements: AFSPC